FW7290 Weather Reports


time (UTC)temp
C
wind
direction
speed
KPH
gust
KPH
rain 1hr
cm
rain 24hr
cm
rain mn
cm
humidity
%
barometer
mb
20260504100205 6 228 0.0 0.0 0.00 0.00 0.00 74 1011.0
20260504090128 7 228 0.0 0.0 0.00 0.00 0.00 72 1011.0
20260504081558 7 227 0.0 0.0 0.00 0.00 0.00 66 1011.1
20260504081054 7 228 0.0 0.0 0.00 0.00 0.00 65 1011.0
20260504080551 7 225 0.0 0.0 0.00 0.00 0.00 65 1011.1
20260504050404 7 227 0.0 0.0 0.00 0.00 0.00 67 1011.2
20260504045901 7 227 0.0 0.0 0.00 0.00 0.00 67 1011.5
20260504045356 7 228 0.0 0.0 0.00 0.00 0.00 67 1011.4
20260504044853 7 228 0.0 0.0 0.00 0.00 0.00 66 1011.5
20260504044350 7 226 0.0 0.0 0.00 0.00 0.00 66 1011.5
20260504043848 7 223 0.0 0.0 0.00 0.00 0.00 66 1011.8
20260504043344 7 215 0.0 0.0 0.00 0.00 0.00 66 1012.1
20260504042842 7 215 0.0 0.0 0.00 0.00 0.00 65 1012.1
20260504042338 7 215 0.0 0.0 0.00 0.00 0.00 64 1011.9
20260504041834 7 215 0.0 0.0 0.00 0.00 0.00 64 1011.9
20260504041331 7 215 0.0 0.0 0.00 0.00 0.00 64 1011.8
20260504040827 7 215 0.0 0.0 0.00 0.00 0.00 66 1011.7
20260504040324 6 215 0.0 0.0 0.00 0.00 0.00 67 1011.6
20260504035820 6 215 0.0 0.0 0.00 0.00 0.00 67 1011.5
20260504035318 6 215 0.0 0.0 0.00 0.00 0.00 67 1011.7
20260504034815 6 215 0.0 0.0 0.00 0.00 0.00 67 1011.8
20260504034312 6 215 0.0 0.0 0.00 0.00 0.00 68 1011.4
20260504033809 6 215 0.0 0.0 0.00 0.00 0.00 67 1011.6
20260504033307 6 215 0.0 0.0 0.00 0.00 0.00 67 1011.3
20260504032803 6 215 0.0 0.0 0.00 0.00 0.00 68 1011.5
20260504032301 6 215 0.0 0.0 0.00 0.00 0.00 68 1011.5
20260504031757 6 215 0.0 0.0 0.00 0.00 0.00 68 1011.5
20260504031255 6 215 0.0 0.0 0.00 0.00 0.00 68 1011.3
20260504030750 6 215 0.0 0.0 0.00 0.00 0.00 69 1011.4
20260504030248 6 215 0.0 0.0 0.00 0.00 0.00 69 1011.3
20260504025744 6 215 0.0 0.0 0.00 0.00 0.00 68 1011.3
20260504025241 6 215 0.0 0.0 0.00 0.00 0.00 68 1011.2
20260504024738 6 215 0.0 0.0 0.00 0.00 0.00 67 1011.2
20260504024235 6 215 0.0 0.0 0.00 0.00 0.00 66 1011.3
20260504023732 6 215 0.0 0.0 0.00 0.00 0.00 65 1011.2
20260504023228 6 215 0.0 0.0 0.00 0.00 0.00 64 1011.2
20260504022724 6 215 0.0 0.0 0.00 0.00 0.00 64 1011.2
20260504022220 6 214 0.0 0.0 0.00 0.00 0.00 63 1011.2
20260504021718 6 222 0.0 0.0 0.00 0.00 0.00 63 1011.3
20260504021215 6 222 0.0 0.0 0.00 0.00 0.00 63 1011.3
20260504020711 7 222 0.0 0.0 0.00 0.00 0.00 61 1011.4
20260504020208 7 222 0.0 0.0 0.00 0.00 0.00 61 1011.3
20260504015704 7 222 0.0 0.0 0.00 0.00 0.00 60 1011.1
20260504015200 7 222 0.0 0.0 0.00 0.00 0.00 58 1011.3
20260504014656 7 222 0.0 0.0 0.00 0.00 0.00 57 1011.3
20260504014153 8 222 0.0 0.0 0.00 0.00 0.00 56 1011.3
20260504013651 8 222 0.0 0.0 0.00 0.00 0.00 54 1011.2
20260504013148 8 222 0.0 0.0 0.00 0.00 0.00 52 1011.3
20260504012645 8 222 0.0 0.0 0.00 0.00 0.00 51 1011.1
20260504012143 9 222 0.0 0.0 0.00 0.00 0.00 50 1010.9
20260504011639 9 222 0.0 0.0 0.00 0.00 0.00 47 1010.9
20260504011136 10 222 0.0 0.0 0.00 0.00 0.00 46 1011.1
20260504010632 10 222 0.0 0.0 0.00 0.00 0.00 45 1010.8
20260504010128 10 222 0.0 0.0 0.00 0.00 0.00 45 1010.8
20260504005625 10 230 0.0 0.0 0.00 0.00 0.00 45 1010.7
20260504005122 10 229 0.0 0.0 0.00 0.00 0.00 44 1010.8
20260504004620 10 224 0.0 0.0 0.00 0.00 0.00 43 1010.7
20260504004117 10 224 0.0 0.0 0.00 0.00 0.00 43 1010.6
20260504003613 10 224 0.0 0.0 0.00 0.00 0.00 42 1010.7
20260504003110 10 231 0.0 0.0 0.00 0.00 0.00 42 1010.8
20260504002606 11 224 0.0 0.0 0.00 0.00 0.00 41 1010.6
20260504002104 11 224 0.0 0.0 0.00 0.00 0.00 40 1010.7
20260504001602 11 227 0.0 0.0 0.00 0.00 0.00 40 1010.6
20260504001057 11 232 0.0 0.0 0.00 0.00 0.00 39 1010.5
20260504000555 11 226 0.0 1.6 0.00 0.00 0.00 38 1010.5
20260504000052 12 239 0.0 0.0 0.00 0.00 0.00 38 1010.5
20260503235550 12 295 3.2 3.2 0.00 0.00 0.00 37 1010.4
20260503235047 12 268 3.2 4.8 0.00 0.00 0.00 37 1010.4
20260503234545 12 223 1.6 3.2 0.00 0.00 0.00 36 1010.2
20260503234043 12 75 4.8 4.8 0.00 0.00 0.00 36 1010.0
20260503233539 12 235 1.6 1.6 0.00 0.00 0.00 36 1010.1
20260503233035 12 227 1.6 1.6 0.00 0.00 0.00 35 1010.1
20260503232532 12 279 4.8 4.8 0.00 0.00 0.00 35 1010.0
20260503232030 12 329 3.2 3.2 0.00 0.00 0.00 35 1009.7
20260503231527 12 341 4.8 9.7 0.00 0.00 0.00 34 1009.8
20260503231024 12 317 3.2 4.8 0.00 0.00 0.00 33 1009.6
20260503230520 12 282 1.6 3.2 0.00 0.00 0.00 33 1009.6
20260503230018 12 272 1.6 1.6 0.00 0.00 0.00 33 1009.4
20260503225515 12 220 1.6 1.6 0.00 0.00 0.00 32 1009.5
20260503225010 13 252 1.6 1.6 0.00 0.00 0.00 31 1009.4
20260503224508 13 3 8.0 11.3 0.00 0.00 0.00 29 1009.1
20260503224005 13 271 4.8 4.8 0.00 0.00 0.00 30 1009.4
20260503223503 13 233 4.8 4.8 0.00 0.00 0.00 30 1009.4
20260503222958 13 321 6.4 9.7 0.00 0.00 0.00 28 1009.4
20260503222457 13 264 4.8 4.8 0.00 0.00 0.00 30 1009.4
20260503221954 13 12 6.4 8.0 0.00 0.00 0.00 29 1009.3
20260503221453 13 288 6.4 9.7 0.00 0.00 0.00 28 1009.3
20260503220950 13 271 3.2 3.2 0.00 0.00 0.00 27 1009.4
20260503220446 13 282 6.4 8.0 0.00 0.00 0.00 27 1009.4
20260503215943 13 248 8.0 9.7 0.00 0.00 0.00 26 1009.6
20260503215439 13 10 3.2 4.8 0.00 0.00 0.00 27 1009.3
20260503214937 13 319 6.4 9.7 0.00 0.00 0.00 26 1009.5
20260503214435 13 3 4.8 9.7 0.00 0.00 0.00 26 1009.5
20260503213932 13 247 3.2 3.2 0.00 0.00 0.00 27 1009.4
20260503213430 13 272 6.4 9.7 0.00 0.00 0.00 26 1009.4
20260503212926 13 307 4.8 9.7 0.00 0.00 0.00 26 1009.4
20260503212424 13 307 6.4 9.7 0.00 0.00 0.00 27 1009.3
20260503211921 13 327 6.4 8.0 0.00 0.00 0.00 27 1009.2
20260503211418 13 13 16.1 25.7 0.00 0.00 0.00 27 1009.2
20260503210913 13 351 1.6 3.2 0.00 0.00 0.00 28 1009.2
20260503210410 13 348 11.3 16.1 0.00 0.00 0.00 26 1009.3
20260503205905 13 328 4.8 4.8 0.00 0.00 0.00 27 1009.3
20260503205402 13 334 3.2 4.8 0.00 0.00 0.00 28 1009.5
20260503204858 13 337 11.3 14.5 0.00 0.00 0.00 26 1009.5
20260503204356 12 8 4.8 4.8 0.00 0.00 0.00 27 1009.4
20260503203853 12 295 4.8 8.0 0.00 0.00 0.00 30 1009.5
20260503203350 12 319 6.4 9.7 0.00 0.00 0.00 30 1009.4
20260503202847 13 319 4.8 4.8 0.00 0.00 0.00 29 1009.5
20260503202345 12 319 4.8 8.0 0.00 0.00 0.00 32 1009.7
20260503201843 12 325 4.8 9.7 0.00 0.00 0.00 33 1009.7
20260503201340 12 265 4.8 4.8 0.00 0.00 0.00 33 1009.6
20260503200838 12 318 4.8 4.8 0.00 0.00 0.00 33 1009.6
20260503200333 12 310 6.4 9.7 0.00 0.00 0.00 33 1009.8
20260503195830 12 177 3.2 4.8 0.00 0.00 0.00 34 1009.7
20260503195327 12 338 8.0 12.9 0.00 0.00 0.00 32 1009.8
20260503194824 12 241 3.2 3.2 0.00 0.00 0.00 34 1009.8
20260503194320 12 278 9.7 12.9 0.00 0.00 0.00 33 1009.8
20260503193816 12 345 1.6 4.8 0.00 0.00 0.00 36 1009.9
20260503193312 12 18 14.5 20.9 0.00 0.00 0.00 34 1010.2
20260503192809 12 295 4.8 8.0 0.00 0.00 0.00 36 1010.3
20260503192305 12 254 1.6 3.2 0.00 0.00 0.00 35 1010.3
20260503191800 11 356 8.0 9.7 0.00 0.00 0.00 35 1010.4
20260503191257 11 357 4.8 4.8 0.00 0.00 0.00 35 1010.5
20260503190754 12 266 6.4 8.0 0.00 0.00 0.00 34 1010.4
20260503190251 12 219 1.6 1.6 0.00 0.00 0.00 37 1010.5
20260503185748 12 222 1.6 1.6 0.00 0.00 0.00 37 1010.4
20260503185244 12 24 4.8 11.3 0.00 0.00 0.00 35 1010.6
20260503184738 12 2 16.1 24.1 0.00 0.00 0.00 34 1010.7
20260503184235 12 333 6.4 9.7 0.00 0.00 0.00 35 1010.9
20260503183731 12 290 3.2 4.8 0.00 0.00 0.00 37 1010.5
20260503183229 11 275 4.8 4.8 0.00 0.00 0.00 38 1011.0
20260503182727 11 236 3.2 3.2 0.00 0.00 0.00 42 1010.9
20260503182226 11 243 1.6 3.2 0.00 0.00 0.00 38 1011.2
20260503181722 11 29 8.0 12.9 0.00 0.00 0.00 38 1011.2
20260503181219 10 350 4.8 9.7 0.00 0.00 0.00 40 1011.0
20260503180715 11 275 4.8 4.8 0.00 0.00 0.00 39 1011.1
20260503180214 10 320 11.3 16.1 0.00 0.00 0.00 40 1011.1
20260503175710 10 301 3.2 3.2 0.00 0.00 0.00 41 1011.1
20260503175208 10 243 3.2 3.2 0.00 0.00 0.00 42 1011.2
20260503174703 10 355 4.8 4.8 0.00 0.00 0.00 42 1011.2
20260503174201 10 239 1.6 1.6 0.00 0.00 0.00 43 1011.1
20260503173656 9 279 6.4 9.7 0.00 0.00 0.00 43 1011.3
20260503173153 9 257 6.4 11.3 0.00 0.00 0.00 43 1011.2
20260503172650 9 322 6.4 8.0 0.00 0.00 0.00 43 1011.0
20260503172147 10 316 6.4 8.0 0.00 0.00 0.00 41 1011.1
20260503171643 10 327 6.4 9.7 0.00 0.00 0.00 41 1011.3
20260503171141 10 73 4.8 8.0 0.00 0.00 0.00 40 1011.4
20260503170638 10 245 1.6 3.2 0.00 0.00 0.00 42 1011.3
20260503170134 10 245 1.6 1.6 0.00 0.00 0.00 43 1011.3
20260503150526 8 300 11.3 16.1 0.00 0.00 0.00 47 1011.3
20260503131419 7 33 6.4 8.0 0.00 0.00 0.00 60 1012.2
20260503130916 7 326 4.8 8.0 0.00 0.00 0.00 62 1012.1
20260503130413 6 228 0.0 1.6 0.00 0.00 0.00 63 1011.9
20260503110817 5 327 4.8 8.0 0.00 0.00 0.00 70 1011.8
20260503110314 5 232 0.0 0.0 0.00 0.00 0.00 70 1011.5